Shirley, NY

12:37 AM EST on February 25, 2017 (GMT -0500)
Brookhaven

Weather History for KHWV - February, 2013

Change the Weather History Date:

Wednesday, February 6, 2013

  Actual Average (KISP) Record (KISP)
Temperature  
Mean Temperature 34 °F -  
Max Temperature 39 °F 38 °F 60 °F (2008)
Min Temperature 28 °F 23 °F 4 °F (1993)
Degree Days  
Heating Degree Days 32    
Moisture  
Dew Point 22 °F    
Average Humidity 65    
Maximum Humidity 89    
Minimum Humidity 36    
Precipitation  
Precipitation 0.01 in - - ()
Sea Level Pressure  
Sea Level Pressure 30.09 in    
Wind  
Wind Speed 7 mph (NW)    
Max Wind Speed 20 mph    
Max Gust Speed 28 mph    
Visibility 9 miles    
Events Snow    
Averages and records for this station are not official NWS values.
T = Trace of Precipitation, MM = Missing Value Source: NWS Daily Summary

Daily Weather History Graph

Daily Weather History Graph

Search for Another Location

Airport or City:

Trip Planner

Search our weather history database for the weather conditions in past years. The results will help you decide how hot, cold, wet, or windy it might be!

Date:

Astronomy

Feb. 06, 2013 Rise Set
Actual Time 6:56 AM EST 5:15 PM EST
Civil Twilight 6:27 AM EST 5:44 PM EST
Nautical Twilight 5:55 AM EST 6:16 PM EST
Astronomical Twilight 5:23 AM EST 6:48 PM EST
Moon 3:37 AM EST (2/6) 1:30 PM EST (2/6)
Length of Visible Light 11h 16m
Length of Day
10h 19m
Waning Crescent, 17% of the Moon is Illuminated
Feb 6
Waning Crescent
Feb 10
New
Feb 17
First Quarter
Feb 25
Full
Mar 4
Last Quarter

Hourly Weather History & Observations

Time (EST) Temp. Windchill Dew Point Humidity Pressure Visibility Wind Dir Wind Speed Gust Speed Precip Events Conditions
12:18 AM 32.0 °F 26.4 °F 28.4 °F 87% 29.93 in 6.0 mi North 5.8 mph - 0.00 in Snow Light Snow
12:56 AM 30.9 °F 26.2 °F 27.0 °F 85% 29.93 in 5.0 mi North 4.6 mph - 0.00 in Snow Light Snow
1:56 AM 30.9 °F 25.2 °F 27.0 °F 85% 29.92 in 9.0 mi North 5.8 mph - 0.00 in   Overcast
2:31 AM 30.2 °F - 26.6 °F 86% 29.92 in 10.0 mi Calm Calm - N/A   Overcast
2:56 AM 30.9 °F 27.5 °F 28.0 °F 89% 29.94 in 8.0 mi North 3.5 mph - 0.00 in   Overcast
3:56 AM 30.9 °F - 28.0 °F 89% 29.94 in 8.0 mi Calm Calm - N/A   Overcast
5:53 AM 28.4 °F - 24.8 °F 86% 29.97 in 5.0 mi Calm Calm - N/A   Mostly Cloudy
5:56 AM 28.0 °F 24.2 °F 25.0 °F 88% 29.99 in 5.0 mi West 3.5 mph - N/A   Mostly Cloudy
6:56 AM 30.0 °F 25.2 °F 27.0 °F 88% 30.01 in 7.0 mi WNW 4.6 mph - N/A   Overcast
7:21 AM 30.2 °F 24.3 °F 26.6 °F 86% 30.02 in 6.0 mi WNW 5.8 mph - N/A   Mostly Cloudy
7:56 AM 30.0 °F 24.1 °F 27.0 °F 88% 30.04 in 6.0 mi WNW 5.8 mph - N/A   Scattered Clouds
8:56 AM 34.0 °F 25.0 °F 28.0 °F 79% 30.07 in 7.0 mi WNW 12.7 mph - N/A   Clear
9:56 AM 36.0 °F 29.0 °F 26.1 °F 67% 30.06 in 10.0 mi WNW 9.2 mph - N/A   Clear
10:56 AM 37.9 °F 29.2 °F 24.1 °F 57% 30.09 in 10.0 mi WNW 15.0 mph 21.9 mph N/A   Partly Cloudy
11:56 AM 39.0 °F 31.4 °F 21.9 °F 50% 30.07 in 10.0 mi WNW 12.7 mph - 0.01 in   Clear
12:56 PM 39.9 °F 31.1 °F 21.0 °F 47% 30.07 in 10.0 mi WNW 17.3 mph 24.2 mph N/A   Partly Cloudy
1:56 PM 39.9 °F 31.4 °F 19.0 °F 43% 30.08 in 10.0 mi WNW 16.1 mph 27.6 mph N/A   Partly Cloudy
2:56 PM 39.0 °F 29.3 °F 19.0 °F 45% 30.11 in 10.0 mi NW 19.6 mph 26.5 mph N/A   Scattered Clouds
3:56 PM 39.0 °F 29.6 °F 18.0 °F 43% 30.12 in 10.0 mi NW 18.4 mph 25.3 mph N/A   Partly Cloudy
4:56 PM 37.9 °F 30.5 °F 17.1 °F 43% 30.15 in 10.0 mi WNW 11.5 mph - N/A   Clear
5:56 PM 36.0 °F 30.3 °F 16.0 °F 44% 30.19 in 10.0 mi NW 6.9 mph - N/A   Clear
6:56 PM 35.1 °F 31.0 °F 18.0 °F 50% 30.23 in 10.0 mi WNW 4.6 mph - N/A   Clear
7:56 PM 34.0 °F 25.5 °F 15.1 °F 46% 30.27 in 10.0 mi NW 11.5 mph - N/A   Clear
8:56 PM 32.0 °F 24.2 °F 14.0 °F 48% 30.29 in 10.0 mi NW 9.2 mph - N/A   Clear
9:56 PM 32.0 °F 24.8 °F 12.9 °F 45% 30.31 in 10.0 mi NNW 8.1 mph - N/A   Clear
10:56 PM 30.9 °F 23.5 °F 10.0 °F 42% 30.34 in 10.0 mi NNW 8.1 mph - N/A   Clear
11:56 PM 30.0 °F 25.2 °F 6.1 °F 36% 30.36 in 10.0 mi North 4.6 mph - N/A   Clear